MDT,Max TemperatureF,Mean TemperatureF,Min TemperatureF,Max Dew PointF,MeanDew PointF,Min DewpointF,Max Humidity, Mean Humidity, Min Humidity, Max Sea Level PressureIn, Mean Sea Level PressureIn, Min Sea Level PressureIn, Max VisibilityMiles, Mean VisibilityMiles, Min VisibilityMiles, Max Wind SpeedMPH, Mean Wind SpeedMPH, Max Gust SpeedMPH,PrecipitationIn, CloudCover, Events, WindDirDegrees
2013-5-1,51,40,28,19,10,1,56,37,13,30.57,30.32,30.12,10,10,10,14,8,20,0.00,0,,324
2013-5-2,60,45,30,19,15,10,51,39,19,30.63,30.55,30.37,10,10,10,13,10,17,0.00,1,,320
2013-5-3,64,50,35,43,24,19,76,44,19,30.37,30.23,30.06,10,10,10,21,9,29,0.00,3,,325
2013-5-4,59,50,42,36,32,28,76,56,31,30.08,30.05,29.99,10,10,10,17,12,22,0.00,6,,323
2013-5-5,66,52,37,32,31,28,75,54,26,30.02,29.98,29.91,10,10,10,16,9,28,0.00,2,,331
2013-5-6,68,55,42,52,34,28,66,52,24,30.15,29.95,29.90,10,10,10,17,13,29,0.00,2,Rain-Thunderstorm,322
2013-5-7,59,50,42,48,40,34,88,69,54,30.02,29.97,29.95,10,10,7,14,9,,0.00,6,Rain-Thunderstorm,315
2013-5-8,66,54,42,46,40,37,87,67,35,30.17,30.07,30.02,10,10,7,20,7,32,0.00,4,Rain,313
2013-5-9,71,56,42,48,40,36,77,60,31,30.25,30.19,30.13,10,10,10,21,10,30,0.00,3,Rain-Thunderstorm,316
2013-5-10,73,58,44,43,38,34,76,54,27,30.34,30.28,30.24,10,10,10,20,10,20,0.00,1,Rain-Thunderstorm,315
2013-5-11,75,60,44,41,36,34,66,48,23,30.38,30.33,30.25,10,10,10,15,9,18,0.00,1,,311
2013-5-12,80,65,50,39,36,34,58,45,22,30.30,30.26,30.15,10,10,10,18,12,22,0.00,1,,315
2013-5-13,80,65,50,43,36,28,62,43,17,30.20,30.14,30.01,10,10,10,16,10,23,0.00,1,,304
2013-5-14,75,60,46,41,33,25,66,41,17,30.11,30.05,29.97,10,10,10,18,7,25,0.00,1,,289
2013-5-15,73,58,44,37,32,28,57,42,23,30.05,29.99,29.87,10,10,10,14,8,23,0.00,3,,300
2013-5-16,62,56,50,45,38,32,82,54,36,29.93,29.91,29.89,10,10,10,14,5,18,0.00,6,,299
2013-5-17,60,53,46,46,44,39,100,86,45,29.95,29.90,29.88,10,8,3,12,3,18,0.00,7,Rain,181
2013-5-18,62,52,42,41,37,28,87,69,29,30.02,29.96,29.93,10,10,10,16,7,24,0.00,1,,299
2013-5-19,60,48,37,41,34,30,87,65,39,30.16,30.08,30.02,10,10,10,12,6,,0.00,4,,307
2013-5-20,66,54,41,39,35,32,76,61,32,30.22,30.17,30.11,10,10,10,14,8,20,0.00,1,,299
2013-5-21,64,52,39,46,39,34,81,68,39,30.12,29.97,29.71,10,10,3,17,8,29,0.00,2,Rain-Thunderstorm,305
2013-5-22,51,45,39,43,34,16,100,69,24,29.95,29.79,29.70,10,10,10,17,4,,0.00,3,,295
2013-5-23,59,46,32,30,20,12,93,45,18,29.95,29.90,29.84,10,10,10,17,5,17,0.00,4,,141
2013-5-24,62,47,32,39,23,19,65,47,19,30.06,30.01,29.95,10,10,10,14,8,23,0.00,0,,307
2013-5-25,64,52,41,36,28,27,57,45,26,29.97,29.95,29.92,10,10,10,15,10,20,0.00,2,,307
2013-5-26,64,52,39,41,33,28,93,54,32,30.02,29.97,29.93,10,10,10,13,8,17,0.00,4,Rain,314
2013-5-27,60,48,35,41,36,30,93,75,31,30.02,29.98,29.91,10,10,10,15,6,16,0.00,3,Rain,289
2013-5-28,55,48,41,46,41,37,100,82,54,29.91,29.83,29.79,10,10,10,10,4,,0.00,7,Rain-Thunderstorm,298
2013-5-29,57,47,37,43,36,28,93,71,36,29.86,29.82,29.77,10,10,10,15,8,25,0.00,3,Rain,307
2013-5-30,62,48,35,32,29,23,87,57,25,30.03,29.93,29.86,10,10,10,13,6,20,0.00,1,,317
2013-5-31,66,52,37,37,31,27,70,51,24,30.24,30.13,30.04,10,10,10,16,8,23,0.00,0,,319